Flag for U.S.A. Weather past 2 weeks in Manhattan, Kansas, U.S.A.

Now
54 °F

Overcast.


Feels Like: 51 °F
Forecast: 45 / 60 °F
Wind: 9 mph from North

Location: Manhattan Municipal Airport

Current Time: Apr 19, 2015 at 6:18:21 PM

Latest Report: Apr 19, 2015 at 5:52 PM


Visibility: 10 mi

Pressure: 29.78 "Hg

Humidity: 53%

Dew point: 37 °F

Location of ManhattanLocation

Historic Weather in Manhattan — Graph

°F

Manhattan temperature yesterday

Maximum temperature yesterday: 72 °F (at 4:52 PM)
Minimum temperature yesterday: 55 °F (at 8:52 PM)
Average temperature yesterday: 62 °F

Past Weeks' High & Low Weather Summary

 TemperatureHumidityPressure
High78 °F (Apr 7, 1:52 PM)100% (Apr 8, 8:52 AM)30.27 "Hg (Apr 8, 8:52 AM)
Low33 °F (Apr 10, 6:52 AM)18% (Apr 4, 5:52 PM)29.50 "Hg (Apr 9, 3:52 AM)
Average59 °F69%29.93 "Hg
* Reported Apr 4 4:52 PM — Apr 19 4:52 PM, Manhattan, Weather by CustomWeather, © 2015

Note: Actual official high and low records may vary slightly from our data, if they occured in-between our weather recording intervals... More about our weather records

Advertising

Manhattan weather history for previous 24 hours

 ConditionsComfort  
Time TempWeatherWind HumidityBarometerVisibility
4:52 PM
Sun, Apr 19
51 °FLight rain. Overcast.12 mph66%29.78 "Hg10 mi
3:52 PM52 °FOvercast.12 mph69%29.77 "Hg10 mi
2:59 PM52 °FLight rain. Fog.13 mph89%29.77 "Hg3 mi
1:52 PM55 °FLight rain. Mostly cloudy.10 mph83%29.75 "Hg7 mi
1:03 PM56 °FLight rain. Fog.9 mph90%29.75 "Hg3 mi
11:52 AM60 °FMostly cloudy.8 mph75%29.75 "Hg10 mi
10:59 AM62 °FPartly sunny.7 mph75%29.75 "Hg10 mi
9:52 AM60 °FPassing clouds.3 mph75%29.73 "Hg10 mi
8:52 AM56 °FSunny.3 mph90%29.74 "Hg10 mi
7:52 AM54 °FSunny.No wind93%29.75 "Hg10 mi
6:52 AM53 °FClear.3 mph93%29.74 "Hg10 mi
5:52 AM53 °FClear.5 mph93%29.72 "Hg10 mi
4:52 AM51 °FPassing clouds.7 mph96%29.72 "Hg10 mi
3:52 AM55 °FLight rain. Mostly cloudy.10 mph87%29.67 "Hg10 mi
2:52 AM54 °FRain. Fog.8 mph97%29.76 "Hg4 mi
1:52 AM54 °FLight rain. Fog.5 mph97%29.79 "Hg6 mi
12:52 AM55 °FLight rain. Overcast.7 mph96%29.77 "Hg10 mi
11:52 PM
Sat, Apr 18
55 °FLight rain. Fog.3 mph96%29.81 "Hg4 mi
10:52 PM55 °FLight rain. Overcast.6 mph96%29.82 "Hg10 mi
10:04 PM55 °FLight rain. Fog.No wind96%29.86 "Hg3 mi
10:00 PM55 °FRain. Fog.3 mph96%29.86 "Hg2 mi
8:59 PM55 °FLight rain. Fog.7 mph96%29.85 "Hg2 mi
8:52 PM55 °FRain. Fog.8 mph96%29.85 "Hg3 mi
7:52 PM62 °FOvercast.9 mph67%29.82 "Hg10 mi
6:52 PM69 °FPartly sunny.10 mph63%29.78 "Hg10 mi
Weather by CustomWeather, © 2015

See weather overviewHow to use our weather pages